Year,Month,Day,Hour,Minute,Value (Times are PST for temperature in C)
2018,07,17,00,00,18.50
2018,07,17,00,01,18.40
2018,07,17,00,02,18.30
2018,07,17,00,03,18.30
2018,07,17,00,04,18.20
2018,07,17,00,05,18.20
2018,07,17,00,06,18.10
2018,07,17,00,07,18.10
2018,07,17,00,08,18.00
2018,07,17,00,09,17.90
2018,07,17,00,10,17.90
2018,07,17,00,11,17.90
2018,07,17,00,12,17.80
2018,07,17,00,13,17.80
2018,07,17,00,14,17.80
2018,07,17,00,15,17.80
2018,07,17,00,16,17.80
2018,07,17,00,17,17.80
2018,07,17,00,18,17.90
2018,07,17,00,19,17.90
2018,07,17,00,20,17.90
2018,07,17,00,21,17.90
2018,07,17,00,22,17.90
2018,07,17,00,23,17.90
2018,07,17,00,24,17.80
2018,07,17,00,25,17.80
2018,07,17,00,26,17.70
2018,07,17,00,27,17.60
2018,07,17,00,28,17.60
2018,07,17,00,29,17.50
2018,07,17,00,30,17.50
2018,07,17,00,31,17.40
2018,07,17,00,32,17.40
2018,07,17,00,33,17.40
2018,07,17,00,34,17.40
2018,07,17,00,35,17.30
2018,07,17,00,36,17.30
2018,07,17,00,37,17.20
2018,07,17,00,38,17.20
2018,07,17,00,39,17.20
2018,07,17,00,40,17.20
2018,07,17,00,41,17.10
2018,07,17,00,42,17.10
2018,07,17,00,43,17.10
2018,07,17,00,44,17.10
2018,07,17,00,45,17.00
2018,07,17,00,46,17.00
2018,07,17,00,47,16.90
2018,07,17,00,48,16.90
2018,07,17,00,49,16.90
2018,07,17,00,50,16.80
2018,07,17,00,51,16.80
2018,07,17,00,52,16.80
2018,07,17,00,53,16.80
2018,07,17,00,54,16.70
2018,07,17,00,55,16.70
2018,07,17,00,56,16.70
2018,07,17,00,57,16.70
2018,07,17,00,58,16.60
2018,07,17,00,59,16.60
2018,07,17,01,00,16.60
2018,07,17,01,01,16.60
2018,07,17,01,02,16.60
2018,07,17,01,03,16.60
2018,07,17,01,04,16.60
2018,07,17,01,05,16.50
2018,07,17,01,06,16.50
2018,07,17,01,07,16.40
2018,07,17,01,08,16.40
2018,07,17,01,09,16.40
2018,07,17,01,10,16.40
2018,07,17,01,11,16.30
2018,07,17,01,12,16.30
2018,07,17,01,13,16.30
2018,07,17,01,14,16.20
2018,07,17,01,15,16.20
2018,07,17,01,16,16.20
2018,07,17,01,17,16.20
2018,07,17,01,18,16.20
2018,07,17,01,19,16.20
2018,07,17,01,20,16.20
2018,07,17,01,21,16.20
2018,07,17,01,22,16.20
2018,07,17,01,23,16.10
2018,07,17,01,24,16.10
2018,07,17,01,25,16.10
2018,07,17,01,26,16.10
2018,07,17,01,27,16.10
2018,07,17,01,28,16.10
2018,07,17,01,29,16.10
2018,07,17,01,30,16.10
2018,07,17,01,31,16.10
2018,07,17,01,32,16.10
2018,07,17,01,33,16.10
2018,07,17,01,34,16.10
2018,07,17,01,35,16.10
2018,07,17,01,36,16.10
2018,07,17,01,37,16.10
2018,07,17,01,38,16.00
2018,07,17,01,39,16.00
2018,07,17,01,40,16.00
2018,07,17,01,41,16.00
2018,07,17,01,42,16.00
2018,07,17,01,43,16.00
2018,07,17,01,44,16.00
2018,07,17,01,45,16.00
2018,07,17,01,46,16.00
2018,07,17,01,47,16.00
2018,07,17,01,48,16.00
2018,07,17,01,49,16.00
2018,07,17,01,50,16.00
2018,07,17,01,51,16.00
2018,07,17,01,52,16.00
2018,07,17,01,53,16.00
2018,07,17,01,54,16.00
2018,07,17,01,55,16.00
2018,07,17,01,56,16.00
2018,07,17,01,57,16.00
2018,07,17,01,58,16.00
2018,07,17,01,59,16.00
2018,07,17,02,00,16.00
2018,07,17,02,01,16.00
2018,07,17,02,02,16.00
2018,07,17,02,03,16.00
2018,07,17,02,04,16.00
2018,07,17,02,05,16.00
2018,07,17,02,06,16.00
2018,07,17,02,07,16.00
2018,07,17,02,08,16.00
2018,07,17,02,09,16.00
2018,07,17,02,10,16.00
2018,07,17,02,11,16.00
2018,07,17,02,12,16.10
2018,07,17,02,13,16.10
2018,07,17,02,14,16.10
2018,07,17,02,15,16.10
2018,07,17,02,16,16.10
2018,07,17,02,17,16.20
2018,07,17,02,18,16.20
2018,07,17,02,19,16.20
2018,07,17,02,20,16.20
2018,07,17,02,21,16.20
2018,07,17,02,22,16.30
2018,07,17,02,23,16.30
2018,07,17,02,24,16.30
2018,07,17,02,25,16.30
2018,07,17,02,26,16.30
2018,07,17,02,27,16.40
2018,07,17,02,28,16.40
2018,07,17,02,29,16.40
2018,07,17,02,30,16.40
2018,07,17,02,31,16.40
2018,07,17,02,32,16.40
2018,07,17,02,33,16.40
2018,07,17,02,34,16.40
2018,07,17,02,35,16.40
2018,07,17,02,36,16.40
2018,07,17,02,37,16.40
2018,07,17,02,38,16.40
2018,07,17,02,39,16.30
2018,07,17,02,40,16.30
2018,07,17,02,41,16.30
2018,07,17,02,42,16.30
2018,07,17,02,43,16.30
2018,07,17,02,44,16.30
2018,07,17,02,45,16.30
2018,07,17,02,46,16.30
2018,07,17,02,47,16.30
2018,07,17,02,48,16.30
2018,07,17,02,49,16.30
2018,07,17,02,50,16.30
2018,07,17,02,51,16.30
2018,07,17,02,52,16.30
2018,07,17,02,53,16.30
2018,07,17,02,54,16.30
2018,07,17,02,55,16.30
2018,07,17,02,56,16.30
2018,07,17,02,57,16.30
2018,07,17,02,58,16.30
2018,07,17,02,59,16.30
2018,07,17,03,00,16.30
2018,07,17,03,01,16.30
2018,07,17,03,02,16.30
2018,07,17,03,06,16.30
2018,07,17,03,07,16.20
2018,07,17,03,08,16.20
2018,07,17,03,09,16.20
2018,07,17,03,10,16.20
2018,07,17,03,11,16.20
2018,07,17,03,12,16.20
2018,07,17,03,13,16.20
2018,07,17,03,14,16.20
2018,07,17,03,15,16.20
2018,07,17,03,16,16.10
2018,07,17,03,17,16.10
2018,07,17,03,18,16.10
2018,07,17,03,19,16.10
2018,07,17,03,20,16.10
2018,07,17,03,21,16.10
2018,07,17,03,22,16.10
2018,07,17,03,23,16.00
2018,07,17,03,24,16.00
2018,07,17,03,25,16.00
2018,07,17,03,26,16.00
2018,07,17,03,27,16.00
2018,07,17,03,28,16.00
2018,07,17,03,29,16.00
2018,07,17,03,30,16.00
2018,07,17,03,31,16.00
2018,07,17,03,32,16.00
2018,07,17,03,33,16.00
2018,07,17,03,34,15.90
2018,07,17,03,35,15.90
2018,07,17,03,36,15.90
2018,07,17,03,37,15.90
2018,07,17,03,38,15.80
2018,07,17,03,39,15.80
2018,07,17,03,40,15.80
2018,07,17,03,41,15.80
2018,07,17,03,42,15.80
2018,07,17,03,43,15.80
2018,07,17,03,44,15.80
2018,07,17,03,45,15.80
2018,07,17,03,46,15.80
2018,07,17,03,47,15.80
2018,07,17,03,48,15.70
2018,07,17,03,49,15.70
2018,07,17,03,50,15.70
2018,07,17,03,51,15.70
2018,07,17,03,52,15.70
2018,07,17,03,53,15.70
2018,07,17,03,54,15.70
2018,07,17,03,55,15.70
2018,07,17,03,56,15.60
2018,07,17,03,57,15.60
2018,07,17,03,58,15.60
2018,07,17,03,59,15.50
2018,07,17,04,00,15.50
2018,07,17,04,01,15.40
2018,07,17,04,02,15.40
2018,07,17,04,03,15.40
2018,07,17,04,04,15.40
2018,07,17,04,05,15.40
2018,07,17,04,06,15.30
2018,07,17,04,07,15.30
2018,07,17,04,08,15.30
2018,07,17,04,09,15.30
2018,07,17,04,10,15.20
2018,07,17,04,11,15.20
2018,07,17,04,12,15.20
2018,07,17,04,13,15.20
2018,07,17,04,14,15.20
2018,07,17,04,15,15.10
2018,07,17,04,16,15.10
2018,07,17,04,17,15.10
2018,07,17,04,18,15.10
2018,07,17,04,19,15.10
2018,07,17,04,20,15.00
2018,07,17,04,21,15.00
2018,07,17,04,22,15.00
2018,07,17,04,23,15.00
2018,07,17,04,24,14.90
2018,07,17,04,25,14.90
2018,07,17,04,26,14.90
2018,07,17,04,27,14.90
2018,07,17,04,28,14.80
2018,07,17,04,29,14.80
2018,07,17,04,30,14.80
2018,07,17,04,31,14.80
2018,07,17,04,32,14.80
2018,07,17,04,33,14.70
2018,07,17,04,34,14.70
2018,07,17,04,35,14.70
2018,07,17,04,36,14.70
2018,07,17,04,37,14.70
2018,07,17,04,38,14.60
2018,07,17,04,39,14.60
2018,07,17,04,40,14.60
2018,07,17,04,41,14.60
2018,07,17,04,42,14.60
2018,07,17,04,43,14.60
2018,07,17,04,44,14.60
2018,07,17,04,45,14.60
2018,07,17,04,46,14.60
2018,07,17,04,47,14.60
2018,07,17,04,48,14.60
2018,07,17,04,49,14.60
2018,07,17,04,50,14.60
2018,07,17,04,51,14.60
2018,07,17,04,52,14.60
2018,07,17,04,53,14.60
2018,07,17,04,54,14.60
2018,07,17,04,55,14.60
2018,07,17,04,56,14.60
2018,07,17,04,57,14.60
2018,07,17,04,58,14.60
2018,07,17,04,59,14.60
2018,07,17,05,00,14.50
2018,07,17,05,01,14.50
2018,07,17,05,02,14.50
2018,07,17,05,03,14.50
2018,07,17,05,04,14.50
2018,07,17,05,05,14.50
2018,07,17,05,06,14.50
2018,07,17,05,07,14.50
2018,07,17,05,08,14.50
2018,07,17,05,09,14.50
2018,07,17,05,10,14.50
2018,07,17,05,11,14.50
2018,07,17,05,12,14.50
2018,07,17,05,13,14.40
2018,07,17,05,14,14.40
2018,07,17,05,15,14.40
2018,07,17,05,16,14.40
2018,07,17,05,17,14.40
2018,07,17,05,18,14.40
2018,07,17,05,19,14.40
2018,07,17,05,20,14.40
2018,07,17,05,21,14.40
2018,07,17,05,22,14.40
2018,07,17,05,23,14.40
2018,07,17,05,24,14.40
2018,07,17,05,25,14.40
2018,07,17,05,26,14.40
2018,07,17,05,27,14.40
2018,07,17,05,28,14.40
2018,07,17,05,29,14.40
2018,07,17,05,30,14.40
2018,07,17,05,31,14.40
2018,07,17,05,32,14.40
2018,07,17,05,33,14.40
2018,07,17,05,34,14.40
2018,07,17,05,35,14.40
2018,07,17,05,36,14.40
2018,07,17,05,37,14.40
2018,07,17,05,38,14.40
2018,07,17,05,39,14.40
2018,07,17,05,40,14.40
2018,07,17,05,41,14.40
2018,07,17,05,42,14.40
2018,07,17,05,43,14.40
2018,07,17,05,44,14.40
2018,07,17,05,45,14.40
2018,07,17,05,46,14.40
2018,07,17,05,47,14.40
2018,07,17,05,48,14.40
2018,07,17,05,49,14.40
2018,07,17,05,50,14.40
2018,07,17,05,51,14.40
2018,07,17,05,52,14.30
2018,07,17,05,53,14.30
2018,07,17,05,54,14.30
2018,07,17,05,55,14.30
2018,07,17,05,56,14.30
2018,07,17,05,57,14.30
2018,07,17,05,58,14.30
2018,07,17,05,59,14.30
2018,07,17,06,00,14.30
2018,07,17,06,01,14.30
2018,07,17,06,02,14.30
2018,07,17,06,03,14.30
2018,07,17,06,04,14.30
2018,07,17,06,05,14.30
2018,07,17,06,06,14.30
2018,07,17,06,07,14.30
2018,07,17,06,08,14.30
2018,07,17,06,09,14.30
2018,07,17,06,10,14.40
2018,07,17,06,11,14.40
2018,07,17,06,12,14.40
2018,07,17,06,13,14.50
2018,07,17,06,14,14.50
2018,07,17,06,15,14.60
2018,07,17,06,16,14.60
2018,07,17,06,17,14.70
2018,07,17,06,18,14.70
2018,07,17,06,19,14.70
2018,07,17,06,20,14.70
2018,07,17,06,21,14.80
2018,07,17,06,22,14.80
2018,07,17,06,23,14.90
2018,07,17,06,24,14.90
2018,07,17,06,25,14.90
2018,07,17,06,26,15.00
2018,07,17,06,27,15.00
2018,07,17,06,28,15.10
2018,07,17,06,29,15.10
2018,07,17,06,30,15.10
2018,07,17,06,31,15.10
2018,07,17,06,32,15.10
2018,07,17,06,33,15.20
2018,07,17,06,34,15.20
2018,07,17,06,35,15.20
2018,07,17,06,36,15.20
2018,07,17,06,37,15.20
2018,07,17,06,38,15.30
2018,07,17,06,39,15.30
2018,07,17,06,40,15.30
2018,07,17,06,41,15.30
2018,07,17,06,42,15.40
2018,07,17,06,43,15.40
2018,07,17,06,44,15.50
2018,07,17,06,45,15.60
2018,07,17,06,46,15.60
2018,07,17,06,47,15.70
2018,07,17,06,48,15.70
2018,07,17,06,49,15.70
2018,07,17,06,50,15.80
2018,07,17,06,51,15.80
2018,07,17,06,52,15.90
2018,07,17,06,53,15.90
2018,07,17,06,54,16.00
2018,07,17,06,55,16.10
2018,07,17,06,56,16.20
2018,07,17,06,57,16.30
2018,07,17,06,58,16.40
2018,07,17,06,59,16.40
2018,07,17,07,00,16.50
2018,07,17,07,01,16.60
2018,07,17,07,02,16.60
2018,07,17,07,03,16.70
2018,07,17,07,04,16.80
2018,07,17,07,05,17.00
2018,07,17,07,06,17.10
2018,07,17,07,07,17.30
2018,07,17,07,08,17.50
2018,07,17,07,09,17.60
2018,07,17,07,10,17.70
2018,07,17,07,11,17.80
2018,07,17,07,12,17.80
2018,07,17,07,13,17.90
2018,07,17,07,14,17.90
2018,07,17,07,15,18.00
2018,07,17,07,16,18.00
2018,07,17,07,17,18.10
2018,07,17,07,18,18.10
2018,07,17,07,19,18.10
2018,07,17,07,20,18.20
2018,07,17,07,21,18.30
2018,07,17,07,22,18.40
2018,07,17,07,23,18.50
2018,07,17,07,24,18.60
2018,07,17,07,25,18.70
2018,07,17,07,26,18.80
2018,07,17,07,27,18.90
2018,07,17,07,28,19.00
2018,07,17,07,29,19.20
2018,07,17,07,30,19.20
2018,07,17,07,31,19.30
2018,07,17,07,32,19.40
2018,07,17,07,33,19.50
2018,07,17,07,34,19.50
2018,07,17,07,35,19.60
2018,07,17,07,36,19.60
2018,07,17,07,37,19.70
2018,07,17,07,38,19.70
2018,07,17,07,39,19.80
2018,07,17,07,40,19.80
2018,07,17,07,41,19.80
2018,07,17,07,42,19.90
2018,07,17,07,43,19.90
2018,07,17,07,44,19.90
2018,07,17,07,45,20.00
2018,07,17,07,46,19.90
2018,07,17,07,47,19.90
2018,07,17,07,48,20.00
2018,07,17,07,49,20.00
2018,07,17,07,50,20.00
2018,07,17,07,51,20.00
2018,07,17,07,52,20.10
2018,07,17,07,53,20.10
2018,07,17,07,54,20.10
2018,07,17,07,55,20.10
2018,07,17,07,56,20.10
2018,07,17,07,57,20.10
2018,07,17,07,58,20.10
2018,07,17,07,59,20.20
2018,07,17,08,00,20.20
2018,07,17,08,01,20.30
2018,07,17,08,02,20.30
2018,07,17,08,03,20.40
2018,07,17,08,04,20.50
2018,07,17,08,05,20.50
2018,07,17,08,06,20.60
2018,07,17,08,07,20.60
2018,07,17,08,08,20.70
2018,07,17,08,09,20.80
2018,07,17,08,10,20.90
2018,07,17,08,11,20.90
2018,07,17,08,12,21.00
2018,07,17,08,13,21.10
2018,07,17,08,14,21.10
2018,07,17,08,15,21.10
2018,07,17,08,16,21.10
2018,07,17,08,17,21.00
2018,07,17,08,18,21.00
2018,07,17,08,19,20.90
2018,07,17,08,20,20.90
2018,07,17,08,21,20.90
2018,07,17,08,22,20.90
2018,07,17,08,23,20.90
2018,07,17,08,24,20.90
2018,07,17,08,25,20.90
2018,07,17,08,26,20.90
2018,07,17,08,27,20.90
2018,07,17,08,28,20.90
2018,07,17,08,29,20.80
2018,07,17,08,30,20.80
2018,07,17,08,31,20.70
2018,07,17,08,32,20.60
2018,07,17,08,33,20.60
2018,07,17,08,34,20.60
2018,07,17,08,35,20.60
2018,07,17,08,36,20.50
2018,07,17,08,37,20.50
2018,07,17,08,38,20.40
2018,07,17,08,39,20.50
2018,07,17,08,40,20.50
2018,07,17,08,41,20.60
2018,07,17,08,42,20.70
2018,07,17,08,43,20.70
2018,07,17,08,44,20.80
2018,07,17,08,45,20.90
2018,07,17,08,46,20.90
2018,07,17,08,47,20.90
2018,07,17,08,48,20.90
2018,07,17,08,49,20.90
2018,07,17,08,50,20.90
2018,07,17,08,51,20.90
2018,07,17,08,52,20.90
2018,07,17,08,53,20.90
2018,07,17,08,54,21.00
2018,07,17,08,55,21.00
2018,07,17,08,56,21.10
2018,07,17,08,57,21.10
2018,07,17,08,58,21.00
2018,07,17,08,59,21.00
2018,07,17,09,00,20.90
2018,07,17,09,01,20.90
2018,07,17,09,02,20.90
2018,07,17,09,03,20.90
2018,07,17,09,04,20.90
2018,07,17,09,05,20.90
2018,07,17,09,06,20.80
2018,07,17,09,07,20.80
2018,07,17,09,08,20.70
2018,07,17,09,09,20.70
2018,07,17,09,10,20.60
2018,07,17,09,11,20.60
2018,07,17,09,12,20.60
2018,07,17,09,13,20.60
2018,07,17,09,14,20.60
2018,07,17,09,15,20.70
2018,07,17,09,16,20.70
2018,07,17,09,17,20.80
2018,07,17,09,18,20.80
2018,07,17,09,19,20.80
2018,07,17,09,20,20.80
2018,07,17,09,21,20.80
2018,07,17,09,22,20.80
2018,07,17,09,23,20.90
2018,07,17,09,24,21.00
2018,07,17,09,25,21.10
2018,07,17,09,26,21.20
2018,07,17,09,27,21.30
2018,07,17,09,28,21.40
2018,07,17,09,29,21.50
2018,07,17,09,30,21.60
2018,07,17,09,31,21.60
2018,07,17,09,32,21.70
2018,07,17,09,33,21.70
2018,07,17,09,34,21.80
2018,07,17,09,35,21.80
2018,07,17,09,36,21.80
2018,07,17,09,37,21.80
2018,07,17,09,38,21.80
2018,07,17,09,39,21.70
2018,07,17,09,40,21.70
2018,07,17,09,41,21.60
2018,07,17,09,42,21.50
2018,07,17,09,43,21.50
2018,07,17,09,44,21.50
2018,07,17,09,45,21.50
2018,07,17,09,46,21.40
2018,07,17,09,47,21.40
2018,07,17,09,48,21.40
2018,07,17,09,49,21.50
2018,07,17,09,50,21.50
2018,07,17,09,51,21.60
2018,07,17,09,52,21.70
2018,07,17,09,53,21.80
2018,07,17,09,54,21.80
2018,07,17,09,55,21.80
2018,07,17,09,56,21.80
2018,07,17,09,57,21.80
2018,07,17,09,58,21.80
2018,07,17,09,59,21.80
2018,07,17,10,00,21.80
2018,07,17,10,01,21.80
2018,07,17,10,02,21.80
2018,07,17,10,03,22.00
2018,07,17,10,04,22.00
2018,07,17,10,05,22.10
2018,07,17,10,06,22.20
2018,07,17,10,07,22.40
2018,07,17,10,08,22.40
2018,07,17,10,09,22.40
2018,07,17,10,10,22.40
2018,07,17,10,11,22.30
2018,07,17,10,12,22.30
2018,07,17,10,13,22.30
2018,07,17,10,14,22.30
2018,07,17,10,15,22.30
2018,07,17,10,16,22.30
2018,07,17,10,17,22.20
2018,07,17,10,18,22.20
2018,07,17,10,19,22.20
2018,07,17,10,20,22.20
2018,07,17,10,21,22.30
2018,07,17,10,22,22.40
2018,07,17,10,23,22.30
2018,07,17,10,24,22.30
2018,07,17,10,25,22.40
2018,07,17,10,26,22.40
2018,07,17,10,27,22.50
2018,07,17,10,28,22.50
2018,07,17,10,29,22.60
2018,07,17,10,30,22.70
2018,07,17,10,31,22.70
2018,07,17,10,32,22.80
2018,07,17,10,33,22.90
2018,07,17,10,34,22.90
2018,07,17,10,35,23.00
2018,07,17,10,36,23.10
2018,07,17,10,37,23.10
2018,07,17,10,38,23.20
2018,07,17,10,39,23.30
2018,07,17,10,40,23.30
2018,07,17,10,41,23.40
2018,07,17,10,42,23.40
2018,07,17,10,43,23.30
2018,07,17,10,44,23.30
2018,07,17,10,45,23.50
2018,07,17,10,46,23.50
2018,07,17,10,47,23.50
2018,07,17,10,48,23.40
2018,07,17,10,49,23.30
2018,07,17,10,50,23.30
2018,07,17,10,51,23.20
2018,07,17,10,52,23.20
2018,07,17,10,53,23.10
2018,07,17,10,54,23.10
2018,07,17,10,55,23.00
2018,07,17,10,56,22.90
2018,07,17,10,57,22.90
2018,07,17,10,58,22.80
2018,07,17,10,59,22.80
2018,07,17,11,00,22.90
2018,07,17,11,01,22.90
2018,07,17,11,02,22.90
2018,07,17,11,03,22.80
2018,07,17,11,04,22.80
2018,07,17,11,05,22.80
2018,07,17,11,06,22.80
2018,07,17,11,07,22.90
2018,07,17,11,08,23.00
2018,07,17,11,09,23.10
2018,07,17,11,10,23.20
2018,07,17,11,11,23.20
2018,07,17,11,12,23.20
2018,07,17,11,13,23.20
2018,07,17,11,14,23.20
2018,07,17,11,15,23.30
2018,07,17,11,16,23.30
2018,07,17,11,17,23.30
2018,07,17,11,18,23.40
2018,07,17,11,19,23.50
2018,07,17,11,20,23.50
2018,07,17,11,21,23.60
2018,07,17,11,22,23.60
2018,07,17,11,23,23.60
2018,07,17,11,24,23.60
2018,07,17,11,25,23.60
2018,07,17,11,26,23.70
2018,07,17,11,27,23.70
2018,07,17,11,28,23.80
2018,07,17,11,29,23.90
2018,07,17,11,30,24.00
2018,07,17,11,31,24.00
2018,07,17,11,32,24.10
2018,07,17,11,33,24.00
2018,07,17,11,34,23.90
2018,07,17,11,35,23.80
2018,07,17,11,36,23.70
2018,07,17,11,37,23.70
2018,07,17,11,38,23.50
2018,07,17,11,39,23.40
2018,07,17,11,40,23.30
2018,07,17,11,41,23.20
2018,07,17,11,42,23.10
2018,07,17,11,43,23.10
2018,07,17,11,44,23.10
2018,07,17,11,45,23.10
2018,07,17,11,46,23.10
2018,07,17,11,47,23.10
2018,07,17,11,48,23.20
2018,07,17,11,49,23.20
2018,07,17,11,50,23.20
2018,07,17,11,51,23.20
2018,07,17,11,52,23.20
2018,07,17,11,53,23.20
2018,07,17,11,54,23.30
2018,07,17,11,55,23.30
2018,07,17,11,56,23.30
2018,07,17,11,57,23.20
2018,07,17,11,58,23.20
2018,07,17,11,59,23.20
2018,07,17,12,00,23.30
2018,07,17,12,01,23.30
2018,07,17,12,02,23.40
2018,07,17,12,03,23.40
2018,07,17,12,04,23.30
2018,07,17,12,05,23.20
2018,07,17,12,06,23.10
2018,07,17,12,07,23.00
2018,07,17,12,08,22.90
2018,07,17,12,09,22.90
2018,07,17,12,10,23.00
2018,07,17,12,11,23.00
2018,07,17,12,12,23.10
2018,07,17,12,13,23.10
2018,07,17,12,14,23.10
2018,07,17,12,15,23.20
2018,07,17,12,16,23.20
2018,07,17,12,17,23.30
2018,07,17,12,18,23.30
2018,07,17,12,19,23.20
2018,07,17,12,20,23.20
2018,07,17,12,21,23.10
2018,07,17,12,22,23.00
2018,07,17,12,23,22.90
2018,07,17,12,24,22.90
2018,07,17,12,25,22.90
2018,07,17,12,26,22.90
2018,07,17,12,27,22.80
2018,07,17,12,28,22.80
2018,07,17,12,29,22.80
2018,07,17,12,30,22.70
2018,07,17,12,31,22.70
2018,07,17,12,32,22.60
2018,07,17,12,33,22.60
2018,07,17,12,34,22.70
2018,07,17,12,35,22.80
2018,07,17,12,36,22.80
2018,07,17,12,37,22.90
2018,07,17,12,38,22.90
2018,07,17,12,39,22.90
2018,07,17,12,40,22.90
2018,07,17,12,41,22.90
2018,07,17,12,42,22.80
2018,07,17,12,43,22.80
2018,07,17,12,44,22.80
2018,07,17,12,45,22.90
2018,07,17,12,46,22.90
2018,07,17,12,47,22.80
2018,07,17,12,48,22.80
2018,07,17,12,49,22.70
2018,07,17,12,50,22.70
2018,07,17,12,51,22.60
2018,07,17,12,52,22.50
2018,07,17,12,53,22.50
2018,07,17,12,54,22.40
2018,07,17,12,55,22.30
2018,07,17,12,56,22.30
2018,07,17,12,57,22.40
2018,07,17,12,58,22.40
2018,07,17,12,59,22.50
2018,07,17,13,00,22.50
2018,07,17,13,01,22.40
2018,07,17,13,02,22.50
2018,07,17,13,03,22.50
2018,07,17,13,04,22.60
2018,07,17,13,05,22.70
2018,07,17,13,06,22.80
2018,07,17,13,07,22.90
2018,07,17,13,08,22.90
2018,07,17,13,09,23.00
2018,07,17,13,10,23.10
2018,07,17,13,11,23.20
2018,07,17,13,12,23.20
2018,07,17,13,13,23.30
2018,07,17,13,14,23.40
2018,07,17,13,15,23.40
2018,07,17,13,16,23.50
2018,07,17,13,17,23.60
2018,07,17,13,18,23.70
2018,07,17,13,19,23.70
2018,07,17,13,20,23.70
2018,07,17,13,21,23.60
2018,07,17,13,22,23.60
2018,07,17,13,23,23.60
2018,07,17,13,24,23.60
2018,07,17,13,25,23.60
2018,07,17,13,26,23.60
2018,07,17,13,27,23.70
2018,07,17,13,28,23.70
2018,07,17,13,29,23.70
2018,07,17,13,30,23.70
2018,07,17,13,31,23.70
2018,07,17,13,32,23.60
2018,07,17,13,33,23.50
2018,07,17,13,34,23.40
2018,07,17,13,35,23.40
2018,07,17,13,36,23.30
2018,07,17,13,37,23.30
2018,07,17,13,38,23.30
2018,07,17,13,39,23.30
2018,07,17,13,40,23.20
2018,07,17,13,41,23.20
2018,07,17,13,42,23.10
2018,07,17,13,43,23.00
2018,07,17,13,44,22.90
2018,07,17,13,45,22.80
2018,07,17,13,46,22.60
2018,07,17,13,47,22.50
2018,07,17,13,48,22.40
2018,07,17,13,49,22.40
2018,07,17,13,50,22.30
2018,07,17,13,51,22.30
2018,07,17,13,52,22.40
2018,07,17,13,53,22.40
2018,07,17,13,54,22.50
2018,07,17,13,55,22.70
2018,07,17,13,56,22.90
2018,07,17,13,57,23.10
2018,07,17,13,58,23.30
2018,07,17,13,59,23.40
2018,07,17,14,00,23.50
2018,07,17,14,01,23.60
2018,07,17,14,02,23.70
2018,07,17,14,03,23.80
2018,07,17,14,04,23.80
2018,07,17,14,05,23.80
2018,07,17,14,06,23.80
2018,07,17,14,07,23.90
2018,07,17,14,08,23.90
2018,07,17,14,09,24.00
2018,07,17,14,10,24.00
2018,07,17,14,11,24.00
2018,07,17,14,12,24.00
2018,07,17,14,13,24.00
2018,07,17,14,14,23.90
2018,07,17,14,15,23.80
2018,07,17,14,16,23.80
2018,07,17,14,17,23.90
2018,07,17,14,18,24.00
2018,07,17,14,19,23.90
2018,07,17,14,20,24.00
2018,07,17,14,21,24.10
2018,07,17,14,22,24.10
2018,07,17,14,23,24.00
2018,07,17,14,24,24.10
2018,07,17,14,25,24.10
2018,07,17,14,26,24.00
2018,07,17,14,27,24.00
2018,07,17,14,28,24.00
2018,07,17,14,29,24.00
2018,07,17,14,30,24.00
2018,07,17,14,31,24.00
2018,07,17,14,32,23.90
2018,07,17,14,33,23.90
2018,07,17,14,34,23.90
2018,07,17,14,35,23.80
2018,07,17,14,36,23.80
2018,07,17,14,37,23.80
2018,07,17,14,38,23.80
2018,07,17,14,39,23.60
2018,07,17,14,40,23.50
2018,07,17,14,41,23.40
2018,07,17,14,42,23.20
2018,07,17,14,43,22.90
2018,07,17,14,44,22.80
2018,07,17,14,45,22.70
2018,07,17,14,46,22.70
2018,07,17,14,47,22.80
2018,07,17,14,48,22.80
2018,07,17,14,49,22.90
2018,07,17,14,50,22.90
2018,07,17,14,51,23.00
2018,07,17,14,52,23.10
2018,07,17,14,53,23.10
2018,07,17,14,54,23.10
2018,07,17,14,55,23.00
2018,07,17,14,56,22.90
2018,07,17,14,57,22.90
2018,07,17,14,58,22.80
2018,07,17,14,59,22.80
2018,07,17,15,00,22.70
2018,07,17,15,01,22.70
2018,07,17,15,02,22.80
2018,07,17,15,03,22.90
2018,07,17,15,04,23.00
2018,07,17,15,05,23.00
2018,07,17,15,06,23.10
2018,07,17,15,07,23.10
2018,07,17,15,08,23.10
2018,07,17,15,09,23.10
2018,07,17,15,10,23.10
2018,07,17,15,11,23.20
2018,07,17,15,12,23.20
2018,07,17,15,13,23.20
2018,07,17,15,14,23.20
2018,07,17,15,15,23.30
2018,07,17,15,16,23.30
2018,07,17,15,17,23.30
2018,07,17,15,18,23.30
2018,07,17,15,19,23.30
2018,07,17,15,20,23.40
2018,07,17,15,21,23.50
2018,07,17,15,22,23.60
2018,07,17,15,23,23.70
2018,07,17,15,24,23.80
2018,07,17,15,25,23.80
2018,07,17,15,26,23.80
2018,07,17,15,27,23.80
2018,07,17,15,28,23.80
2018,07,17,15,29,23.80
2018,07,17,15,30,23.80
2018,07,17,15,31,23.80
2018,07,17,15,32,23.80
2018,07,17,15,33,23.90
2018,07,17,15,34,23.90
2018,07,17,15,35,23.90
2018,07,17,15,36,23.80
2018,07,17,15,37,23.70
2018,07,17,15,38,23.70
2018,07,17,15,39,23.60
2018,07,17,15,40,23.60
2018,07,17,15,41,23.60
2018,07,17,15,42,23.60
2018,07,17,15,43,23.60
2018,07,17,15,44,23.60
2018,07,17,15,45,23.60
2018,07,17,15,46,23.60
2018,07,17,15,47,23.60
2018,07,17,15,48,23.70
2018,07,17,15,49,23.70
2018,07,17,15,50,23.70
2018,07,17,15,51,23.50
2018,07,17,15,52,23.50
2018,07,17,15,53,23.30
2018,07,17,15,54,23.10
2018,07,17,15,55,23.00
2018,07,17,15,56,22.80
2018,07,17,15,57,22.80
2018,07,17,15,58,22.70
2018,07,17,15,59,22.80
2018,07,17,16,00,22.80
2018,07,17,16,01,22.70
2018,07,17,16,02,22.70
2018,07,17,16,03,22.70
2018,07,17,16,04,22.60
2018,07,17,16,05,22.50
2018,07,17,16,06,22.40
2018,07,17,16,07,22.40
2018,07,17,16,08,22.40
2018,07,17,16,09,22.30
2018,07,17,16,10,22.20
2018,07,17,16,11,22.20
2018,07,17,16,12,22.20
2018,07,17,16,13,22.20
2018,07,17,16,14,22.10
2018,07,17,16,15,22.10
2018,07,17,16,16,22.20
2018,07,17,16,17,22.20
2018,07,17,16,18,22.20
2018,07,17,16,19,22.20
2018,07,17,16,20,22.20
2018,07,17,16,21,22.20
2018,07,17,16,22,22.20
2018,07,17,16,23,22.20
2018,07,17,16,24,22.30
2018,07,17,16,25,22.40
2018,07,17,16,26,22.40
2018,07,17,16,27,22.40
2018,07,17,16,28,22.30
2018,07,17,16,29,22.30
2018,07,17,16,30,22.30
2018,07,17,16,31,22.30
2018,07,17,16,32,22.30
2018,07,17,16,33,22.30
2018,07,17,16,34,22.30
2018,07,17,16,35,22.30
2018,07,17,16,36,22.30
2018,07,17,16,37,22.30
2018,07,17,16,38,22.40
2018,07,17,16,39,22.40
2018,07,17,16,40,22.50
2018,07,17,16,41,22.60
2018,07,17,16,42,22.70
2018,07,17,16,43,22.70
2018,07,17,16,44,22.60
2018,07,17,16,45,22.60
2018,07,17,16,46,22.60
2018,07,17,16,47,22.70
2018,07,17,16,48,22.70
2018,07,17,16,49,22.70
2018,07,17,16,50,22.80
2018,07,17,16,51,22.90
2018,07,17,16,52,23.00
2018,07,17,16,53,23.10
2018,07,17,16,54,23.20
2018,07,17,16,55,23.30
2018,07,17,16,56,23.50
2018,07,17,16,57,23.50
2018,07,17,16,58,23.60
2018,07,17,16,59,23.60
2018,07,17,17,00,23.70
2018,07,17,17,01,23.70
2018,07,17,17,02,23.70
2018,07,17,17,03,23.60
2018,07,17,17,04,23.60
2018,07,17,17,05,23.60
2018,07,17,17,06,23.60
2018,07,17,17,07,23.50
2018,07,17,17,08,23.40
2018,07,17,17,09,23.40
2018,07,17,17,10,23.40
2018,07,17,17,11,23.50
2018,07,17,17,12,23.50
2018,07,17,17,13,23.60
2018,07,17,17,14,23.70
2018,07,17,17,15,23.80
2018,07,17,17,16,23.80
2018,07,17,17,17,23.90
2018,07,17,17,18,23.90
2018,07,17,17,19,24.00
2018,07,17,17,20,24.10
2018,07,17,17,21,24.10
2018,07,17,17,22,24.10